Weather History for KESN - December, 2013

Change the Weather History Date:

Thursday, December 5, 2013

  Actual Average Record
Temperature  
Mean Temperature 56 °F -  
Max Temperature 63 °F 51 °F 68 °F (1955)
Min Temperature 50 °F 31 °F 17 °F (1966)
Degree Days  
Heating Degree Days 9    
Growing Degree Days 6 (Base 50)    
Moisture  
Dew Point 57 °F    
Average Humidity 100    
Maximum Humidity 100    
Minimum Humidity 100    
Precipitation  
Precipitation 0.00 in - - ()
Sea Level Pressure  
Sea Level Pressure 30.07 in    
Wind  
Wind Speed 4 mph (South)    
Max Wind Speed 14 mph    
Max Gust Speed 18 mph    
Visibility 3 miles    
Events Fog    
Averages and records for this station are not official NWS values.
T = Trace of Precipitation, MM = Missing Value Source: NWS Daily Summary

Daily Weather History Graph

Daily Weather History Graph

Search for Another Location

Airport or City:

Trip Planner

Search our weather history database for the weather conditions in past years. The results will help you decide how hot, cold, wet, or windy it might be!

Date:

Astronomy

Dec. 05, 2013 Rise Set
Actual Time 7:07 AM EST 4:42 PM EST
Civil Twilight 6:37 AM EST 5:11 PM EST
Nautical Twilight 6:04 AM EST 5:45 PM EST
Astronomical Twilight 5:32 AM EST 6:17 PM EST
Moon 9:26 AM EST (12/5) 7:59 PM EST (12/5)
Length of Visible Light 10h 33m
Length of Day
9h 34m
Waxing Crescent, 10% of the Moon is Illuminated
Dec 5
Waxing Crescent
Dec 9
First Quarter
Dec 17
Full
Dec 25
Last Quarter
Jan 1
New

Hourly Weather History & Observations

Time (EST) Temp. Dew Point Humidity Pressure Visibility Wind Dir Wind Speed Gust Speed Precip Events Conditions
12:15 AM 54.1 °F 54.1 °F 100% 30.13 in 2.5 mi Calm Calm - N/A   Overcast
12:35 AM 54.1 °F 54.1 °F 100% 30.13 in 2.5 mi Calm Calm - N/A   Overcast
12:55 AM 54.1 °F 54.1 °F 100% 30.12 in 2.5 mi Calm Calm - N/A   Mostly Cloudy
1:15 AM 54.0 °F 54.0 °F 100% 30.11 in 2.5 mi Calm Calm - N/A   Overcast
1:35 AM 53.8 °F 53.8 °F 100% 30.12 in 2.5 mi Calm Calm - N/A   Overcast
1:55 AM 53.6 °F 53.6 °F 100% 30.12 in 1.8 mi Calm Calm - N/A   Overcast
2:15 AM 52.5 °F 52.5 °F 100% 30.13 in 0.2 mi Calm Calm - N/A Fog Fog
2:35 AM 52.9 °F 52.9 °F 100% 30.12 in 0.5 mi Calm Calm - N/A Fog Fog
2:55 AM 50.7 °F 50.7 °F 100% 30.11 in 0.2 mi Calm Calm - N/A Fog Fog
3:15 AM 50.7 °F 50.7 °F 100% 30.11 in 0.5 mi Calm Calm - N/A Fog Fog
3:35 AM 51.3 °F 51.3 °F 100% 30.11 in 0.5 mi Calm Calm - N/A Fog Fog
3:55 AM 51.8 °F 51.8 °F 100% 30.10 in 0.2 mi Calm Calm - N/A Fog Fog
4:15 AM 51.8 °F 51.8 °F 100% 30.11 in 0.2 mi Calm Calm - N/A Fog Fog
4:35 AM 50.9 °F 50.9 °F 100% 30.10 in 0.5 mi Calm Calm - N/A Fog Fog
4:55 AM 50.5 °F 50.5 °F 100% 30.10 in 0.2 mi SSE 3.5 mph - N/A Fog Fog
5:15 AM 50.5 °F 50.5 °F 100% 30.10 in 0.2 mi SSE 3.5 mph - N/A Fog Fog
5:22 AM 50.5 °F 50.5 °F 100% 30.10 in 0.5 mi Calm Calm - N/A Fog Fog
5:53 AM 50.0 °F 50.0 °F 100% 30.10 in 0.8 mi SSE 3.5 mph - N/A   Mist
6:20 AM 50.0 °F 50.0 °F 100% 30.11 in 2.0 mi SSE 3.5 mph - N/A   Overcast
6:53 AM 51.8 °F 51.8 °F 100% 30.11 in 2.0 mi SSE 3.5 mph - N/A   Overcast
7:15 AM 51.8 °F 51.8 °F 100% 30.11 in 2.5 mi SSE 4.6 mph - N/A   Overcast
7:50 AM 51.8 °F 51.8 °F 100% 30.10 in 2.5 mi SSE 6.9 mph - N/A   Overcast
8:15 AM 53.6 °F 53.6 °F 100% 30.11 in 1.0 mi South 5.8 mph - N/A   Overcast
8:30 AM 53.6 °F 53.6 °F 100% 30.12 in 0.2 mi South 5.8 mph - N/A Fog Fog
8:53 AM 55.4 °F 55.4 °F 100% 30.13 in 1.0 mi SSW 8.1 mph - N/A   Overcast
9:53 AM 55.4 °F 55.4 °F 100% 30.13 in 2.0 mi South 6.9 mph - N/A   Overcast
10:53 AM 57.2 °F 57.2 °F 100% 30.10 in 2.0 mi South 6.9 mph - N/A   Overcast
11:53 AM 57.2 °F 57.2 °F 100% 30.08 in 3.0 mi South 4.6 mph - N/A   Overcast
12:53 PM 62.6 °F 62.6 °F 100% 30.04 in 4.0 mi South 9.2 mph - N/A   Mostly Cloudy
1:53 PM 62.6 °F 62.6 °F 100% 30.03 in 5.0 mi South 13.8 mph 18.4 mph N/A   Overcast
2:37 PM 62.6 °F 62.6 °F 100% 30.03 in 7.0 mi South 11.5 mph - N/A   Overcast
2:53 PM 62.6 °F 62.6 °F 100% 30.03 in 7.0 mi South 11.5 mph - N/A   Overcast
3:08 PM 62.6 °F 62.6 °F 100% 30.02 in 6.0 mi South 11.5 mph - N/A   Overcast
3:35 PM 62.6 °F 62.6 °F 100% 30.03 in 6.0 mi South 11.5 mph - N/A   Overcast
3:53 PM 60.8 °F 60.8 °F 100% 30.03 in 6.0 mi South 11.5 mph - N/A   Overcast
4:26 PM 60.8 °F 60.8 °F 100% 30.04 in 5.0 mi SSW 9.2 mph - N/A   Overcast
4:50 PM 60.8 °F 60.8 °F 100% 30.03 in 5.0 mi South 9.2 mph - N/A   Overcast
5:50 PM 60.8 °F 60.8 °F 100% 30.03 in 5.0 mi SSW 8.1 mph - N/A   Overcast
6:55 PM 62.6 °F 62.6 °F 100% 30.03 in 6.0 mi South 9.2 mph - N/A   Overcast
7:50 PM 62.6 °F 62.6 °F 100% 30.04 in 5.0 mi SSW 8.1 mph - N/A   Overcast
8:50 PM 62.6 °F 62.6 °F 100% 30.03 in 5.0 mi SSW 10.4 mph - N/A   Overcast
9:37 PM 62.2 °F 62.2 °F 100% 30.02 in 5.0 mi SSW 10.4 mph - N/A   Overcast
9:57 PM 62.6 °F 62.6 °F 100% 30.01 in 7.0 mi SSW 9.2 mph - N/A   Overcast
10:17 PM 62.2 °F 62.2 °F 100% 30.01 in 7.0 mi SSW 9.2 mph - N/A   Overcast
10:37 PM 62.1 °F 62.1 °F 100% 30.00 in 7.0 mi SSW 12.7 mph - N/A   Overcast
10:57 PM 62.1 °F 62.1 °F 100% 30.00 in 7.0 mi SSW 10.4 mph - N/A   Overcast
11:17 PM 62.4 °F 62.4 °F 100% 30.00 in 7.0 mi SSW 11.5 mph - N/A   Overcast
11:37 PM 62.6 °F 62.6 °F 100% 30.01 in 10.0 mi SW 9.2 mph - N/A   Mostly Cloudy
11:57 PM 62.6 °F 62.6 °F 100% 30.02 in 10.0 mi SW 11.5 mph - N/A   Mostly Cloudy